Location: C�mpuri de-Sus
(45.9500°N, 22.5500°E)
Time: 13:27:29
(UTC+00:00)

Cosmos 2100 Rocket - Pass Details

Date: 24 October 2021
Orbit: 955 x 1001 km, 82.9° (Epoch: 06 December)

Event Time Altitude Azimuth Distance (km) Brightness Sun altitude
Rises 18:18:04 0° 196° (SSW) 3,680 7.0 -30.0°
Reaches altitude 10° 18:20:36 10° 200° (SSW) 2,742 6.4 -30.4°
Maximum altitude 18:26:51 64° 281° (W) 1,095 4.3 -31.5°
Drops below altitude 10° 18:33:12 10° 3° (N) 2,781 6.5 -32.5°
Sets 18:35:47 0° 7° (N) 3,737 7.2 -33.0°
